Location: Bannatyne
(13.0833°N, 59.5333°W)
Time: 05:16:22
(UTC+00:00)

Vanguard 2 Rocket - Pass Details

Date: 29 January 2020
Orbit: 554 x 3326 km, 32.9° (Epoch: 07 April)

Event Time Altitude Azimuth Distance (km) Brightness Sun altitude
Rises 03:15:28 0° 218° (SW) 4,993 - -75.7°
Reaches altitude 10° 03:19:56 10° 209° (SSW) 3,495 - -76.7°
Maximum altitude 03:26:43 28° 153° (SSE) 1,733 - -78.2°
Drops below altitude 10° 03:31:13 10° 93° (E) 2,274 - -79.2°
Sets 03:33:30 0° 81° (E) 3,003 - -79.7°
